Regional Weather Roundup
Issued by NWS Northern Indiana

Home | Current Version | Previous Version | Text Only | Print | Product List | Glossary Off
Versions: 1 2 3 4 5 6 7 8 9 10 11 12 13 14 15 16 17 18 19 20 21 22 23 24 25 26 27 28 29 30 31 32 33 34 35 36 37 38 39 40 41 42 43 44 45 46 47 48 49 50

000
ASUS43 KIWX 291800
RWRIWX

KIWX WEATHER ROUNDUP
NATIONAL WEATHER SERVICE NORTHERN INDIANA
200 PM EDT SAT AUG 29 2015

NOTE: "FAIR" INDICATES FEW OR NO CLOUDS BELOW 12,000 FEET WITH NO
SIGNIFICANT WEATHER AND/OR OBSTRUCTIONS TO VISIBILITY.

* THESE STATIONS ARE NOT UNDER NWS QUALITY CONTROL. THEY ALSO MAY NOT
  REPORT WEATHER SUCH AS PRECIPITATION OR FOG.

INZ001>027-291900-
NORTHERN INDIANA

CITY           SKY/WX    TMP DP  RH WIND       PRES   REMARKS
GARY*          CLOUDY    75  64  69 S6        30.05S
KNOX*          CLOUDY    70  66  88 N3        30.06S
SOUTH BEND     CLOUDY    68  66  93 S3        30.07F
6HR MIN TEMP:  64; 6HR MAX TEMP:  68; 6HR PCP:  0.08;

ELKHART*       CLOUDY    66  64  94 CALM      30.08S FOG
GOSHEN         LGT RAIN  70  66  87 S3        30.07F FOG
6HR MIN TEMP:  64; 6HR MAX TEMP:  72; 6HR PCP:  0.04;

MONTICELLO*    CLOUDY    77  68  74 SE3       30.05F
6HR MIN TEMP:  65; 6HR MAX TEMP:  77;

WARSAW*        CLOUDY    73  64  73 CALM      30.08S
ANGOLA*        MOSUNNY   72  64  78 SE3       30.08F
FORT WAYNE     LGT RAIN  77  67  71 CALM      30.09F
6HR MIN TEMP:  64; 6HR MAX TEMP:  79; 6HR PCP:  0.01;

PERU/GRISSOM   CLOUDY    77  67  70 S9        30.07F
6HR MIN TEMP:  64; 6HR MAX TEMP:  79; 6HR PCP: TRACE;


$$
INZ028>050-291900-
CENTRAL INDIANA

CITY           SKY/WX    TMP DP  RH WIND       PRES   REMARKS
LAFAYETTE      CLOUDY    77  66  68 SE6       30.05F
6HR MIN TEMP:  66; 6HR MAX TEMP:  78;

KOKOMO*        CLOUDY    77  66  69 SW7       30.08F
6HR MIN TEMP:  63; 6HR MAX TEMP:  79;

MUNCIE*        CLOUDY    79  66  64 SW9       30.10F
6HR MIN TEMP:  66; 6HR MAX TEMP:  79;

INDIANAPOLIS   CLOUDY    79  66  64 SW8       30.08F
6HR MIN TEMP:  66; 6HR MAX TEMP:  79;


$$
MIZ043>046-050>051-056>058-064>065-071>073-077>080-291900-
SOUTHWEST LOWER MICHIGAN

CITY           SKY/WX    TMP DP  RH WIND       PRES   REMARKS
BATTLE CREEK   CLOUDY    68  64  87 E3        30.10S
6HR MIN TEMP:  64; 6HR MAX TEMP:  68; 6HR PCP:  0.18;

BENTON HARBOR    N/A     66  63  90 E7        30.04S FOG
6HR MIN TEMP:  62; 6HR MAX TEMP:  66; 6HR PCP:  0.46;

COLDWATER*     CLOUDY    72  65  78 E3        30.08F
6HR MIN TEMP:  63; 6HR MAX TEMP:  72;

HILLSDALE*     CLOUDY    72  67  83 CALM      30.09F
6HR MIN TEMP:  63; 6HR MAX TEMP:  73;

HOLLAND        LGT RAIN  67  63  87 E3        30.08S
6HR MIN TEMP:  63; 6HR MAX TEMP:  67; 6HR PCP:  0.09;

GRAND RAPIDS   CLOUDY    67  63  87 E5        30.09F
6HR MIN TEMP:  62; 6HR MAX TEMP:  67; 6HR PCP:  0.16;

KALAMAZOO      LGT RAIN  68  63  84 E6        30.08F
6HR MIN TEMP:  63; 6HR MAX TEMP:  68; 6HR PCP:  0.24;

STURGIS*       CLOUDY    70  66  88 CALM      30.07F
THREE RIVERS*  LGT RAIN  67  64  90 CALM      30.08F
6HR MIN TEMP:  61; 6HR MAX TEMP:  67;


$$
OHZ001>008-015>018-024>025-291900-
NORTHWEST OHIO

CITY           SKY/WX    TMP DP  RH WIND       PRES   REMARKS
DEFIANCE       CLOUDY    78  63  59 SE8       30.08F
6HR MIN TEMP:  65; 6HR MAX TEMP:  81;

FINDLAY        MOSUNNY   82  65  56 VRB3      30.09F
6HR MIN TEMP:  64; 6HR MAX TEMP:  82;

TOLEDO EXPRESS PTSUNNY   77  63  61 SE6       30.09F
6HR MIN TEMP:  60; 6HR MAX TEMP:  79;

TOLEDO METCALF MOSUNNY   80  63  55 SE6       30.09F
6HR MIN TEMP:  63; 6HR MAX TEMP:  81;

LIMA           PTSUNNY   81  66  60 SW9       30.10F
6HR MIN TEMP:  65; 6HR MAX TEMP:  82;


$$
AND FOR LAKE MICHIGAN COASTAL AND OPEN LAKE BUOY OBSERVATIONS

STATION/POSITION TEMP    WIND        PRES    VSBY  WAVE
                 AIR SEA DIR/SP/G                  HT/PER
                 (F)     (DEG/KT/KT) (MB)    (MI)  (FT/S)
MICHIGAN CITY     67     100/  8/ 10   N/A
BURNS HARBOR      71     170/  8/ 15 1017.9S
SAINT JOSEPH      65     350/  3/  4 1019.3S
SOUTH LAKE BUOY   66 68  120/ 14/ 16 1016.8F         2/ 3
4 MI NW BRIDGMAN  67 70  200/ 12/ 16   N/A           1
MICHIGAN CITY     68 71  140/  6/  8   N/A           1

$$
&&


USA.gov is the U.S. government's official web portal to all federal, state and local government web resources and services.